Tracking 29033 objects as of 22-Jun-2024
HD Live streaming from Space Station
objects crossing your sky now

PAGEOS 1 DEB

Track PAGEOS 1 DEB now!
10-day predictions


NORAD ID: 2511
Int'l Code: 1966-056D
Perigee: 4,229.1 km
Apogee: 4,267.0 km
Inclination: 87.0 °
Period: 181.5 minutes
Semi major axis: 10619 km
RCS: 1.1173 m2 (large)
Launch date: June 24, 1966
Source: United States (US)
Launch site: AIR FORCE WESTERN TEST RANGE (AFWTR)

Note: This is SATELLITE DEBRIS
Your satellite tracking list
Your tracking list is empty




NASA's NSSDC Master Catalog

Two Line Element Set (TLE):
1 02511U 66056D   24159.32159980 -.00000026  00000-0 -27728-1 0  9997
2 02511  86.9862 289.8098 0017818  64.2496 296.0147  7.93367232293904
Source of the keplerian elements: AFSPC